Starlink 32773

operational
NORAD ID: 62571 Int'l Des: 2025-006 Owner: SPXS Country: US Constellation: starlink
LEOCIRCULAR

About Starlink 32773

Description loading...

Live Position

Loading 3D Globe...

Upcoming Passes

Altitude History

Altitude vs Time

uPlot chart will show altitude changes over time

Two-Line Element Set

1 62571U 25006T 25346.91685542 .00071511 00000-0 25838-2 0 9997
2 62571 43.0020 62.4720 0000896 268.2181 91.8568 15.27571616 51592
Epoch: Dec 12, 2025 • Age: 16 hours

Current Status

Altitude 483.9 km
Velocity 7.63 km/s
Sub-Earth Point 30.52°N, 166.6°E
Launch Date Jan 10, 2025
Age 0.9 years
Type internet

Technical Details

Classification Payload
Mass 730.00 kg
Dry Mass 700.00 kg
Total Mass 730.00 kg
Length 0.30 m
Diameter 4.10 m
Span 29.00 m
Shape Box + pan
Manufacturer SPXS
Bus Type Starlink V2M
Phase Status In Orbit
Owner/State SPXS/US

Large Constellations

Loading constellations...